COSMOS 372

Satellite information

Favourite Embed

Satellite Type and Status

PAYLOADIN ORBIT

Key statistics

Satellite COSMOS 372 at a glance.

Uptime

20046

Days in orbit

Revolutions

≈ 14.4

Per day

Orbit

LEO

Low Earth Orbit

Inclination

74.1

Latest

Satellite identification and parameters

Extended collection of information and parameters for COSMOS 372.

Object identification

Identified? True

Debris? False

Object name: COSMOS 372

International designator: 1970-086A

Object number (NORAD): 4588

Object ID (CCSDS): 4588

Country: COMMONWEALTH OF INDEPENDENT STATES (CIS)

Current information (Y/N): Y

RCS size: LARGE

Orbital parameters

Period: 100.221 minutes

Inclination: 74.0571 deg

SMA: 7147.14 km

Apoapsis: 778.949 km

Periapsis: 759.061 km

RAAN: 22.1447 deg

Eccentricy: 0.00139133

Argument of periapsis: 222.5242 deg

Mean anomaly: 250.1401 deg

Mean motion: 14.36826378 rev/day

Mean motion (dot): 0.00000354 rev/day2

B* drag term: 0.0001285622 1/REarth

Two-line elements (TLE)

Creation date: Sept. 3, 2025, 2:21 a.m.

Reference frame: TEME

Reference center: EARTH

Epoch: Sept. 2, 2025, 7:35 p.m. UTC

TLE line 0: 0 COSMOS 372

TLE line 1: 1 04588U 70086A 25245.81614204 .00000354 00000-0 12856-3 0 9997

TLE line 2: 2 04588 74.0571 22.1447 0013913 222.5242 250.1401 14.36826378871644

Live tracking on map

Real-time ground track for satellite COSMOS 372.

In-orbit conjunctions

A list of the most updated potential collisions computed for object COSMOS 372.

Target Orbit TCA Probability of collision Miss distance Type
DELTA 1 DEB SSO 2025-03-30 19:38:58 0.0002918312 254.0 (m) DEBRIS
DELTA 1 DEB SSO 2025-03-30 14:37:44 0.0001363026 440.0 (m) DEBRIS
FENGYUN 1C DEB SSO 2025-03-20 09:30:13 0.0001412548 863.0 (m) DEBRIS
NOAA 16 DEB SSO 2025-03-14 12:19:11 0.0002897449 212.0 (m) DEBRIS
FENGYUN 1C DEB SSO 2025-02-10 13:26:42 0.001836128 167.0 (m) DEBRIS

Associated space launch

Military communications satellite

COSMOS 372 was lifted into orbit during the mission ‘Kosmos-3M | Strela-2M 2’, on board a Kosmos-3M space rocket.

The launch took place on Oct. 16, 1970, 2:59 p.m. from 132/1 (132L).

For more information about the launch, click the button.

Launch to space Kosmos-3M | Strela-2M 2
Kosmos-3M | Strela-2M 2

Agency: N/A

Status: Launch Successful

Launch date: Oct. 16, 1970, 2:59 p.m. UTC

Rocket: Kosmos-3M

Launch pad: 132/1 (132L)

Location: Plesetsk Cosmodrome, Russian Federation

...

Latest news about this satellite

There are no fresh news available about this satellite. Check back as we update our databases every day.


Newsletter sign-up

Weekly statistics, charts and insights to help you stay on top of the space industry.